Logan, UT

11:54 AM MDT on April 19, 2018 (GMT -0600)
Logan-Cache

Weather History for KLGU - January, 2014

Change the Weather History Date:

Tuesday, January 7, 2014

  Actual Average Record
Temperature  
Mean Temperature 12 °F -  
Max Temperature 24 °F 27 °F 48 °F (1962)
Min Temperature 1 °F 8 °F -25 °F (1973)
Degree Days  
Heating Degree Days 52    
Moisture  
Dew Point 10 °F    
Average Humidity 79    
Maximum Humidity 88    
Minimum Humidity 66    
Precipitation  
Precipitation 0.00 in - - ()
Sea Level Pressure  
Sea Level Pressure 30.36 in    
Wind  
Wind Speed 2 mph (WNW)    
Max Wind Speed 7 mph    
Max Gust Speed -    
Visibility 8 miles    
Events      
Averages and records for this station are not official NWS values.
T = Trace of Precipitation, MM = Missing Value Source: NWS Daily Summary

Daily Weather History Graph

Daily Weather History Graph

Search for Another Location

Airport or City:

Astronomy

Jan. 07, 2014 Rise Set
Actual Time 7:54 AM MST 5:13 PM MST
Civil Twilight 7:23 AM MST 5:44 PM MST
Nautical Twilight 6:48 AM MST 6:19 PM MST
Astronomical Twilight 6:15 AM MST 6:52 PM MST
Moon 11:38 AM MST (1/7) No Moon Set
Length of Visible Light 10h 20m
Length of Day
9h 18m
Waxing Crescent, 46% of the Moon is Illuminated
Jan 7
Waxing Crescent
Jan 7
First Quarter
Jan 15
Full
Jan 23
Last Quarter
Jan 30
New

Hourly Weather History & Observations

Time (MST) Temp. Windchill Dew Point Humidity Pressure Visibility Wind Dir Wind Speed Gust Speed Precip Events Conditions
12:51 AM 1.9 °F - -2.9 °F 80% 30.51 in 10.0 mi Calm Calm - N/A   Clear
1:51 AM 5.0 °F -2.1 °F -0.0 °F 80% 30.47 in 8.0 mi ESE 3.5 mph - N/A   Clear
2:51 AM 8.1 °F - 3.9 °F 83% 30.44 in 9.0 mi Calm Calm - N/A   Clear
3:51 AM 7.0 °F 0.1 °F 3.0 °F 84% 30.42 in 8.0 mi NW 3.5 mph - N/A   Clear
4:51 AM 8.1 °F - 5.0 °F 87% 30.42 in 8.0 mi Calm Calm - N/A   Clear
5:51 AM 9.0 °F 2.4 °F 6.1 °F 88% 30.40 in 7.0 mi SE 3.5 mph - N/A   Mostly Cloudy
6:51 AM 12.0 °F 2.7 °F 7.0 °F 80% 30.38 in 8.0 mi WSW 5.8 mph - N/A   Mostly Cloudy
7:51 AM 10.9 °F 4.7 °F 8.1 °F 88% 30.39 in 7.0 mi WNW 3.5 mph - N/A   Clear
8:51 AM 10.9 °F 4.7 °F 7.0 °F 84% 30.40 in 6.0 mi WNW 3.5 mph - N/A   Clear
9:51 AM 12.9 °F - 9.0 °F 84% 30.42 in 7.0 mi Calm Calm - N/A   Overcast
10:51 AM 16.0 °F 10.4 °F 10.0 °F 77% 30.40 in 8.0 mi SW 3.5 mph - N/A   Overcast
11:51 AM 17.1 °F 8.7 °F 10.9 °F 77% 30.38 in 8.0 mi WNW 5.8 mph - N/A   Overcast
12:51 PM 21.9 °F 15.7 °F 12.0 °F 66% 30.34 in 8.0 mi ENE 4.6 mph - N/A   Mostly Cloudy
1:51 PM 23.0 °F 14.7 °F 15.1 °F 72% 30.30 in 8.0 mi WNW 6.9 mph - N/A   Overcast
2:51 PM 24.1 °F - 15.1 °F 69% 30.30 in 8.0 mi Calm Calm - N/A   Overcast
3:51 PM 24.1 °F - 16.0 °F 71% 30.30 in 7.0 mi Calm Calm - N/A   Overcast
4:51 PM 24.1 °F - 16.0 °F 71% 30.32 in 10.0 mi Calm Calm - N/A   Overcast
5:51 PM 23.0 °F 17.0 °F 16.0 °F 74% 30.31 in 9.0 mi NNW 4.6 mph - N/A   Overcast
6:51 PM 21.0 °F 13.4 °F 15.1 °F 78% 30.30 in 9.0 mi SW 5.8 mph - N/A   Clear
7:51 PM 18.0 °F - 12.9 °F 81% 30.32 in 8.0 mi Calm Calm - N/A   Clear
8:51 PM 17.1 °F - 10.9 °F 77% 30.31 in 8.0 mi Calm Calm - N/A   Mostly Cloudy
9:51 PM 16.0 °F 7.4 °F 12.9 °F 88% 30.32 in 6.0 mi NNW 5.8 mph - N/A   Overcast
10:51 PM 19.0 °F - 14.0 °F 81% 30.29 in 7.0 mi Calm Calm - N/A   Overcast
11:51 PM 19.0 °F 13.9 °F 15.1 °F 85% 30.27 in 6.0 mi WSW 3.5 mph - N/A   Overcast